JA1KWV-11 Weather Reports


time (UTC)temp
F
wind
direction
speed
knots
gust
knots
rain 1hr
in
rain 24hr
in
rain mn
in
humidity
%
barometer
mb
20260508185539 78 267 0.0 0.0 0.00 0.00 0.00 68 1005.0
20260508184739 78 267 0.0 0.0 0.00 0.00 0.00 68 1004.7
20260508183939 78 267 0.0 0.0 0.00 0.00 0.00 68 1004.8
20260508183139 78 267 0.0 0.0 0.00 0.00 0.00 68 1004.9
20260508182338 78 267 0.0 0.0 0.00 0.00 0.00 68 1004.8
20260508181538 78 267 0.0 0.0 0.00 0.00 0.00 67 1004.7
20260508180738 78 267 0.0 0.0 0.00 0.00 0.00 68 1004.5
20260508175938 78 267 0.0 0.0 0.00 0.00 0.00 68 1004.4
20260508175138 78 267 0.0 0.0 0.00 0.00 0.00 68 1004.3
20260508174337 78 267 0.0 0.0 0.00 0.00 0.00 68 1004.3
20260508173537 78 267 0.0 0.0 0.00 0.00 0.00 67 1004.2
20260508172737 78 267 0.0 0.0 0.00 0.00 0.00 67 1004.1
20260508171937 78 267 0.0 0.0 0.00 0.00 0.00 68 1004.3
20260508171136 78 267 0.0 0.0 0.00 0.00 0.00 65 1004.1
20260508170336 78 267 0.0 0.0 0.00 0.00 0.00 67 1004.1
20260508165536 78 267 0.0 0.0 0.00 0.00 0.00 67 1003.9
20260508164736 78 267 0.0 0.0 0.00 0.00 0.00 66 1003.9
20260508163936 78 267 0.0 0.0 0.00 0.00 0.00 66 1003.6
20260508163135 78 267 0.0 0.0 0.00 0.00 0.00 66 1003.7
20260508162335 78 267 0.0 0.0 0.00 0.00 0.00 65 1003.5
20260508161535 78 267 0.0 0.0 0.00 0.00 0.00 65 1003.4
20260508160735 78 267 0.0 0.0 0.00 0.00 0.00 64 1003.5
20260508155935 78 267 0.0 0.0 0.00 0.00 0.00 64 1003.3
20260508155134 78 267 0.0 0.0 0.00 0.00 0.00 62 1003.5
20260508154334 79 267 0.0 0.0 0.00 0.00 0.00 63 1003.6
20260508153534 79 267 0.0 0.0 0.00 0.00 0.00 67 1003.4
20260508152734 79 267 0.0 0.0 0.00 0.00 0.00 67 1003.6
20260508151933 79 267 0.0 0.0 0.00 0.00 0.00 67 1003.6
20260508151133 79 267 0.0 0.0 0.00 0.00 0.00 68 1003.6
20260508150333 79 267 0.0 0.0 0.00 0.00 0.00 68 1003.3
20260508145533 79 267 0.0 0.0 0.00 0.00 0.00 69 1003.1
20260508144732 79 267 0.0 0.0 0.00 0.00 0.00 68 1003.0
20260508143932 79 267 0.0 0.0 0.00 0.00 0.00 69 1003.0
20260508143132 79 267 0.0 0.0 0.00 0.00 0.00 70 1002.9
20260508142332 79 267 0.0 0.0 0.00 0.00 0.00 73 1002.7
20260508141532 79 267 0.0 0.0 0.00 0.00 0.00 72 1002.8
20260508140731 79 267 0.0 0.0 0.00 0.00 0.00 74 1002.6
20260508135931 79 267 0.0 0.0 0.00 0.00 0.00 74 1002.6
20260508135131 79 267 0.0 0.0 0.00 0.00 0.00 74 1002.4
20260508134331 79 267 0.0 0.0 0.00 0.00 0.00 74 1002.4
20260508133531 79 267 0.0 0.0 0.00 0.00 0.00 73 1002.0
20260508132730 79 267 0.0 0.0 0.00 0.00 0.00 74 1001.7
20260508131930 79 267 0.0 0.0 0.00 0.00 0.00 74 1001.6
20260508131130 79 267 0.0 0.0 0.00 0.00 0.00 74 1001.5
20260508130330 79 267 0.0 0.0 0.00 0.00 0.00 75 1001.8
20260508125529 80 267 0.0 0.0 0.00 0.00 0.00 75 1001.8
20260508124729 79 267 0.0 0.0 0.00 0.00 0.00 74 1001.6
20260508123929 79 267 0.0 0.0 0.00 0.00 0.00 75 1001.7
20260508123129 79 267 0.0 0.0 0.00 0.00 0.00 75 1001.5
20260508122328 79 267 0.0 0.0 0.00 0.00 0.00 75 1001.4
20260508121528 79 267 0.0 0.0 0.00 0.00 0.00 76 1001.3
20260508120728 80 267 0.0 0.0 0.00 0.00 0.00 76 1001.2
20260508115928 80 267 0.0 0.0 0.00 0.00 0.00 75 1001.1
20260508115128 79 267 0.0 0.0 0.00 0.00 0.00 75 1000.9
20260508114327 79 267 0.0 0.0 0.00 0.00 0.00 75 1000.9
20260508113527 80 267 0.0 0.0 0.00 0.00 0.00 76 1001.0
20260508112727 80 267 0.0 0.0 0.00 0.00 0.00 76 1001.2
20260508111927 80 267 0.0 0.0 0.00 0.00 0.00 76 1001.1
20260508111126 80 267 0.0 0.0 0.00 0.00 0.00 76 1001.1
20260508110326 80 267 0.0 0.0 0.00 0.00 0.00 76 1000.8
20260508105526 80 267 0.0 0.0 0.00 0.00 0.00 75 1000.7
20260508104726 80 267 0.0 0.0 0.00 0.00 0.00 76 1000.5
20260508103926 80 267 0.0 0.0 0.00 0.00 0.00 75 1000.2
20260508103125 80 267 0.0 0.0 0.00 0.00 0.00 75 1000.4
20260508102325 80 267 0.0 0.0 0.00 0.00 0.00 75 1000.5
20260508101525 80 267 0.0 0.0 0.00 0.00 0.00 76 1000.3
20260508100725 80 267 0.0 0.0 0.00 0.00 0.00 76 1000.3
20260508095925 80 267 0.0 0.0 0.00 0.00 0.00 76 1000.4
20260508095124 80 267 0.0 0.0 0.00 0.00 0.00 76 1000.6
20260508094324 80 267 0.0 0.0 0.00 0.00 0.00 76 1000.8
20260508093524 80 267 0.0 0.0 0.00 0.00 0.00 76 1000.7
20260508092724 80 267 0.0 0.0 0.00 0.00 0.00 75 1000.3
20260508091923 80 267 0.0 0.0 0.00 0.00 0.00 77 1000.3
20260508091123 80 267 0.0 0.0 0.00 0.00 0.00 76 1000.4
20260508090323 80 267 0.0 0.0 0.00 0.00 0.00 75 1000.4
20260508085523 80 267 0.0 0.0 0.00 0.00 0.00 76 1000.4
20260508084723 80 267 0.0 0.0 0.00 0.00 0.00 77 1000.5
20260508083922 80 267 0.0 0.0 0.00 0.00 0.00 77 1000.5
20260508083122 80 267 0.0 0.0 0.00 0.00 0.00 77 1000.6
20260508082322 80 267 0.0 0.0 0.00 0.00 0.00 76 1000.8
20260508081522 80 267 0.0 0.0 0.00 0.00 0.00 77 1000.9
20260508080721 80 267 0.0 0.0 0.00 0.00 0.00 77 1000.8
20260508075921 80 267 0.0 0.0 0.00 0.00 0.00 76 1001.1
20260508075121 80 267 0.0 0.0 0.00 0.00 0.00 77 1000.9
20260508074321 80 267 0.0 0.0 0.00 0.00 0.00 77 1000.9
20260508073521 80 267 0.0 0.0 0.00 0.00 0.00 77 1001.0
20260508072720 80 267 0.0 0.0 0.00 0.00 0.00 76 1001.0
20260508071920 80 267 0.0 0.0 0.00 0.00 0.00 77 1001.3
20260508071120 80 267 0.0 0.0 0.00 0.00 0.00 77 1001.3
20260508070320 80 267 0.0 0.0 0.00 0.00 0.00 77 1001.3
20260508065519 80 267 0.0 0.0 0.00 0.00 0.00 77 1001.4
20260508064719 80 267 0.0 0.0 0.00 0.00 0.00 78 1001.5
20260508063919 80 267 0.0 0.0 0.00 0.00 0.00 77 1001.9
20260508063119 80 267 0.0 0.0 0.00 0.00 0.00 77 1002.0
20260508062319 80 267 0.0 0.0 0.00 0.00 0.00 79 1001.9
20260508061518 81 267 0.0 0.0 0.00 0.00 0.00 79 1001.8
20260508060718 81 267 0.0 0.0 0.00 0.00 0.00 78 1001.9
20260508055918 80 267 0.0 0.0 0.00 0.00 0.00 79 1002.2
20260508055118 81 267 0.0 0.0 0.00 0.00 0.00 78 1002.4
20260508054317 80 267 0.0 0.0 0.00 0.00 0.00 78 1002.2
20260508053517 80 267 0.0 0.0 0.00 0.00 0.00 79 1002.4
20260508052717 80 267 0.0 0.0 0.00 0.00 0.00 78 1002.8
20260508051917 80 267 0.0 0.0 0.00 0.00 0.00 78 1002.9
20260508051117 80 267 0.0 0.0 0.00 0.00 0.00 78 1003.2
20260508050316 80 267 0.0 0.0 0.00 0.00 0.00 79 1003.1
20260508045516 80 267 0.0 0.0 0.00 0.00 0.00 78 1003.1
20260508044716 80 267 0.0 0.0 0.00 0.00 0.00 79 1003.2
20260508043916 80 267 0.0 0.0 0.00 0.00 0.00 79 1003.2
20260508043115 80 267 0.0 0.0 0.00 0.00 0.00 79 1003.2
20260508042315 80 267 0.0 0.0 0.00 0.00 0.00 79 1003.5
20260508041515 80 267 0.0 0.0 0.00 0.00 0.00 79 1003.8
20260508040715 80 267 0.0 0.0 0.00 0.00 0.00 78 1004.2
20260508035915 80 267 0.0 0.0 0.00 0.00 0.00 78 1004.1
20260508035114 80 267 0.0 0.0 0.00 0.00 0.00 78 1004.1
20260508034314 80 267 0.0 0.0 0.00 0.00 0.00 79 1004.1
20260508033514 80 267 0.0 0.0 0.00 0.00 0.00 79 1004.2
20260508032714 80 267 0.0 0.0 0.00 0.00 0.00 78 1004.4
20260508031914 80 267 0.0 0.0 0.00 0.00 0.00 78 1004.5
20260508031113 80 267 0.0 0.0 0.00 0.00 0.00 78 1004.7
20260508030313 80 267 0.0 0.0 0.00 0.00 0.00 78 1005.1
20260508025513 80 267 0.0 0.0 0.00 0.00 0.00 78 1005.0
20260508024713 80 267 0.0 0.0 0.00 0.00 0.00 77 1005.1
20260508023913 80 267 0.0 0.0 0.00 0.00 0.00 77 1005.2
20260508023112 80 267 0.0 0.0 0.00 0.00 0.00 78 1005.4
20260508022312 80 267 0.0 0.0 0.00 0.00 0.00 76 1005.1
20260508021512 80 267 0.0 0.0 0.00 0.00 0.00 78 1005.2
20260508020711 80 267 0.0 0.0 0.00 0.00 0.00 78 1005.4
20260508015911 80 267 0.0 0.0 0.00 0.00 0.00 76 1005.4
20260508015111 80 267 0.0 0.0 0.00 0.00 0.00 77 1005.3
20260508014311 80 267 0.0 0.0 0.00 0.00 0.00 77 1005.3
20260508013511 80 267 0.0 0.0 0.00 0.00 0.00 76 1005.4
20260508012710 80 267 0.0 0.0 0.00 0.00 0.00 77 1005.4
20260508011910 80 267 0.0 0.0 0.00 0.00 0.00 77 1005.4
20260508011110 80 267 0.0 0.0 0.00 0.00 0.00 78 1005.4
20260508010310 80 267 0.0 0.0 0.00 0.00 0.00 78 1005.7
20260508005510 80 267 0.0 0.0 0.00 0.00 0.00 76 1006.0
20260508004709 80 267 0.0 0.0 0.00 0.00 0.00 78 1005.9
20260508003909 80 267 0.0 0.0 0.00 0.00 0.00 78 1006.1
20260508003109 80 267 0.0 0.0 0.00 0.00 0.00 77 1006.6
20260508002309 80 267 0.0 0.0 0.00 0.00 0.00 79 1006.5
20260508001509 80 267 0.0 0.0 0.00 0.00 0.00 80 1006.4
20260508000708 80 267 0.0 0.0 0.00 0.00 0.00 80 1006.7
20260507235908 80 267 0.0 0.0 0.00 0.00 0.00 80 1006.5
20260507235108 80 267 0.0 0.0 0.00 0.00 0.00 78 1006.5
20260507234308 80 267 0.0 0.0 0.00 0.00 0.00 78 1006.9
20260507233507 80 267 0.0 0.0 0.00 0.00 0.00 78 1007.0
20260507232707 80 267 0.0 0.0 0.00 0.00 0.00 78 1007.0
20260507231907 80 267 0.0 0.0 0.00 0.00 0.00 78 1006.9
20260507231107 79 267 0.0 0.0 0.00 0.00 0.00 78 1006.9
20260507230307 79 267 0.0 0.0 0.00 0.00 0.00 78 1007.1
20260507225506 79 267 0.0 0.0 0.00 0.00 0.00 79 1007.1
20260507224706 79 267 0.0 0.0 0.00 0.00 0.00 79 1007.3
20260507223906 79 267 0.0 0.0 0.00 0.00 0.00 79 1007.4
20260507223106 79 267 0.0 0.0 0.00 0.00 0.00 79 1007.4
20260507222306 79 267 0.0 0.0 0.00 0.00 0.00 78 1007.4
20260507221505 79 267 0.0 0.0 0.00 0.00 0.00 78 1007.6
20260507220705 79 267 0.0 0.0 0.00 0.00 0.00 78 1007.8
20260507215905 79 267 0.0 0.0 0.00 0.00 0.00 79 1007.8
20260507215105 79 267 0.0 0.0 0.00 0.00 0.00 79 1007.8
20260507214304 79 267 0.0 0.0 0.00 0.00 0.00 78 1007.9
20260507213504 79 267 0.0 0.0 0.00 0.00 0.00 77 1007.7
20260507212704 79 267 0.0 0.0 0.00 0.00 0.00 78 1007.9
20260507211904 79 267 0.0 0.0 0.00 0.00 0.00 79 1007.7
20260507211103 79 267 0.0 0.0 0.00 0.00 0.00 77 1007.5
20260507210303 79 267 0.0 0.0 0.00 0.00 0.00 78 1007.6
20260507205503 79 267 0.0 0.0 0.00 0.00 0.00 78 1007.3
20260507204703 79 267 0.0 0.0 0.00 0.00 0.00 78 1007.6
20260507203903 79 267 0.0 0.0 0.00 0.00 0.00 78 1007.5
20260507203102 79 267 0.0 0.0 0.00 0.00 0.00 78 1007.5
20260507202306 79 267 0.0 0.0 0.00 0.00 0.00 78 1007.5
20260507201502 79 267 0.0 0.0 0.00 0.00 0.00 78 1007.7
20260507200702 79 267 0.0 0.0 0.00 0.00 0.00 77 1007.4
20260507195901 79 267 0.0 0.0 0.00 0.00 0.00 79 1007.4
20260507195101 79 267 0.0 0.0 0.00 0.00 0.00 79 1007.2
20260507194301 79 267 0.0 0.0 0.00 0.00 0.00 78 1007.1
20260507193501 79 267 0.0 0.0 0.00 0.00 0.00 78 1007.2
20260507192700 79 267 0.0 0.0 0.00 0.00 0.00 78 1007.0
20260507191900 79 267 0.0 0.0 0.00 0.00 0.00 78 1007.1
20260507191100 79 267 0.0 0.0 0.00 0.00 0.00 79 1007.2
20260507190300 79 267 0.0 0.0 0.00 0.00 0.00 78 1007.0